Time,TemperatureF,DewpointF,PressureIn,WindDirection,WindDirectionDegrees,WindSpeedMPH,WindSpeedGustMPH,Humidity,HourlyPrecipIn,Conditions,Clouds,dailyrainin,SoftwareType,DateUTC
2013-06-09 00:01:00,70.4,68.3,30.06,West,279,0.0,0.0,93,0.00,RA,,0.00,WeatherDisplay:10.37,2013-06-09 04:01:00,
2013-06-09 00:06:00,70.4,68.6,30.06,West,279,0.0,0.0,94,0.00,RA,,0.00,WeatherDisplay:10.37,2013-06-09 04:06:00,
2013-06-09 00:11:00,70.4,68.6,30.06,West,279,0.0,0.0,94,0.00,CLR,,0.00,WeatherDisplay:10.37,2013-06-09 04:11:00,
2013-06-09 00:16:00,70.2,68.4,30.06,West,280,0.0,0.0,94,0.00,CLR,,0.00,WeatherDisplay:10.37,2013-06-09 04:16:00,
2013-06-09 00:21:00,70.2,68.4,30.06,West,279,0.0,0.0,94,0.00,CLR,,0.00,WeatherDisplay:10.37,2013-06-09 04:21:00,
2013-06-09 00:26:00,70.2,68.4,30.06,West,279,0.0,0.0,94,0.00,CLR,,0.00,WeatherDisplay:10.37,2013-06-09 04:26:00,
2013-06-09 00:31:00,70.2,68.4,30.06,West,279,0.0,0.0,94,0.00,CLR,,0.00,WeatherDisplay:10.37,2013-06-09 04:31:00,
2013-06-09 00:36:00,70.1,68.3,30.06,West,280,0.0,0.0,94,0.00,CLR,,0.00,WeatherDisplay:10.37,2013-06-09 04:36:00,
2013-06-09 00:41:00,70.1,68.3,30.06,West,280,0.0,0.0,94,0.00,CLR,,0.00,WeatherDisplay:10.37,2013-06-09 04:41:00,
2013-06-09 00:46:00,70.1,68.6,30.06,West,279,0.0,0.0,95,0.00,CLR,,0.00,WeatherDisplay:10.37,2013-06-09 04:46:00,
2013-06-09 00:51:00,70.1,68.6,30.06,West,280,0.0,0.0,95,0.00,CLR,,0.00,WeatherDisplay:10.37,2013-06-09 04:51:00,
2013-06-09 00:56:00,70.1,68.6,30.06,West,280,0.0,0.0,95,0.00,CLR,,0.00,WeatherDisplay:10.37,2013-06-09 04:56:00,
2013-06-09 01:01:00,70.1,68.6,30.05,West,280,0.0,0.0,95,0.00,CLR,,0.00,WeatherDisplay:10.37,2013-06-09 05:01:00,
2013-06-09 01:06:00,70.0,68.5,30.05,West,279,0.0,0.0,95,0.00,CLR,,0.00,WeatherDisplay:10.37,2013-06-09 05:06:00,
2013-06-09 01:11:00,69.9,68.4,30.06,West,279,0.0,0.0,95,0.00,CLR,,0.00,WeatherDisplay:10.37,2013-06-09 05:11:00,
2013-06-09 01:16:00,69.8,68.3,30.06,West,280,0.0,0.0,95,0.00,CLR,,0.00,WeatherDisplay:10.37,2013-06-09 05:16:00,
2013-06-09 01:21:00,69.7,68.2,30.06,West,280,0.0,0.0,95,0.00,CLR,,0.00,WeatherDisplay:10.37,2013-06-09 05:21:00,
2013-06-09 01:26:00,69.6,68.1,30.05,West,280,0.0,0.0,95,0.00,CLR,,0.00,WeatherDisplay:10.37,2013-06-09 05:26:00,
2013-06-09 01:31:00,69.5,68.0,30.06,West,279,0.0,0.0,95,0.00,CLR,,0.00,WeatherDisplay:10.37,2013-06-09 05:31:00,
2013-06-09 01:36:00,69.5,68.0,30.06,West,280,0.0,0.0,95,0.00,CLR,,0.00,WeatherDisplay:10.37,2013-06-09 05:36:00,
2013-06-09 01:41:00,69.4,67.9,30.06,West,280,0.0,0.0,95,0.00,CLR,,0.00,WeatherDisplay:10.37,2013-06-09 05:41:00,
2013-06-09 01:46:00,69.3,68.1,30.06,West,280,0.0,0.0,96,0.00,CLR,,0.00,WeatherDisplay:10.37,2013-06-09 05:46:00,
2013-06-09 01:51:00,69.2,68.0,30.06,West,280,0.0,0.0,96,0.00,CLR,,0.00,WeatherDisplay:10.37,2013-06-09 05:51:00,
2013-06-09 01:56:00,69.0,67.8,30.06,West,280,0.0,0.0,96,0.00,CLR,,0.00,WeatherDisplay:10.37,2013-06-09 05:56:00,
2013-06-09 02:01:00,69.0,67.8,30.06,West,280,0.0,0.0,96,0.00,CLR,,0.00,WeatherDisplay:10.37,2013-06-09 06:01:00,
2013-06-09 02:06:00,69.0,67.8,30.06,West,279,0.0,0.0,96,0.00,CLR,,0.00,WeatherDisplay:10.37,2013-06-09 06:06:00,
2013-06-09 02:11:00,68.9,67.7,30.06,West,280,0.0,0.0,96,0.00,CLR,,0.00,WeatherDisplay:10.37,2013-06-09 06:11:00,
2013-06-09 02:16:00,68.9,67.7,30.06,West,280,0.0,0.0,96,0.00,CLR,,0.00,WeatherDisplay:10.37,2013-06-09 06:16:00,
2013-06-09 02:21:00,68.9,67.7,30.06,West,280,0.0,0.0,96,0.00,CLR,,0.00,WeatherDisplay:10.37,2013-06-09 06:21:00,
2013-06-09 02:26:00,68.8,67.6,30.06,West,280,0.0,0.0,96,0.00,CLR,,0.00,WeatherDisplay:10.37,2013-06-09 06:26:00,
2013-06-09 02:31:00,68.8,67.6,30.06,West,280,0.0,0.0,96,0.00,CLR,,0.00,WeatherDisplay:10.37,2013-06-09 06:31:00,
2013-06-09 02:36:00,68.8,67.9,30.06,West,280,0.0,0.0,97,0.00,CLR,,0.00,WeatherDisplay:10.37,2013-06-09 06:36:00,
2013-06-09 02:41:00,68.7,67.8,30.05,West,280,0.0,0.0,97,0.00,CLR,,0.00,WeatherDisplay:10.37,2013-06-09 06:41:00,
2013-06-09 02:46:00,68.8,67.9,30.05,West,280,0.0,0.0,97,0.00,CLR,,0.00,WeatherDisplay:10.37,2013-06-09 06:46:00,
2013-06-09 02:51:00,69.0,68.1,30.05,West,279,0.0,0.0,97,0.00,CLR,,0.00,WeatherDisplay:10.37,2013-06-09 06:51:00,
2013-06-09 02:56:00,69.0,68.1,30.05,West,280,0.0,0.0,97,0.00,CLR,,0.00,WeatherDisplay:10.37,2013-06-09 06:56:00,
2013-06-09 03:01:00,69.0,68.1,30.06,West,280,0.0,0.0,97,0.00,CLR,,0.00,WeatherDisplay:10.37,2013-06-09 07:01:00,
2013-06-09 03:06:00,69.0,68.1,30.05,West,280,0.0,0.0,97,0.00,CLR,,0.00,WeatherDisplay:10.37,2013-06-09 07:06:00,
2013-06-09 03:11:00,69.0,68.1,30.06,West,280,0.0,0.0,97,0.00,CLR,,0.00,WeatherDisplay:10.37,2013-06-09 07:11:00,
2013-06-09 03:16:00,68.9,68.0,30.06,West,280,0.0,0.0,97,0.00,CLR,,0.00,WeatherDisplay:10.37,2013-06-09 07:16:00,
2013-06-09 03:21:00,68.8,67.9,30.06,West,280,0.0,0.0,97,0.00,CLR,,0.00,WeatherDisplay:10.37,2013-06-09 07:21:00,
2013-06-09 03:26:00,68.9,68.0,30.06,West,279,0.0,0.0,97,0.00,CLR,,0.00,WeatherDisplay:10.37,2013-06-09 07:26:00,
2013-06-09 03:31:00,68.9,68.0,30.06,West,280,0.0,0.0,97,0.00,CLR,,0.00,WeatherDisplay:10.37,2013-06-09 07:31:00,
2013-06-09 03:36:00,69.0,68.1,30.06,West,280,0.0,0.0,97,0.00,CLR,,0.00,WeatherDisplay:10.37,2013-06-09 07:36:00,
2013-06-09 03:41:00,69.0,68.1,30.06,West,279,0.0,0.0,97,0.00,CLR,,0.00,WeatherDisplay:10.37,2013-06-09 07:41:00,
2013-06-09 03:46:00,69.2,68.6,30.07,West,280,0.0,0.0,98,0.00,CLR,,0.00,WeatherDisplay:10.37,2013-06-09 07:46:00,
2013-06-09 03:51:00,69.2,68.3,30.07,WSW,245,1.1,0.0,97,0.00,CLR,,0.00,WeatherDisplay:10.37,2013-06-09 07:51:00,
2013-06-09 03:56:00,69.5,68.9,30.07,WNW,285,0.0,0.0,98,0.00,CLR,,0.00,WeatherDisplay:10.37,2013-06-09 07:56:00,
2013-06-09 04:01:00,69.6,69.0,30.07,WNW,285,0.0,0.0,98,0.00,CLR,,0.00,WeatherDisplay:10.37,2013-06-09 08:01:00,
2013-06-09 04:06:00,69.6,68.7,30.07,WNW,285,0.0,0.0,97,0.00,CLR,,0.00,WeatherDisplay:10.37,2013-06-09 08:06:00,
2013-06-09 04:11:00,69.5,68.6,30.07,WNW,285,0.0,0.0,97,0.00,CLR,,0.00,WeatherDisplay:10.37,2013-06-09 08:11:00,
2013-06-09 04:16:00,69.5,68.6,30.07,WNW,285,0.0,0.0,97,0.00,CLR,,0.00,WeatherDisplay:10.37,2013-06-09 08:16:00,
2013-06-09 04:21:00,69.4,68.5,30.07,WNW,285,0.0,0.0,97,0.00,CLR,,0.00,WeatherDisplay:10.37,2013-06-09 08:21:00,
2013-06-09 04:26:00,69.4,68.5,30.07,WNW,285,0.0,0.0,97,0.00,CLR,,0.00,WeatherDisplay:10.37,2013-06-09 08:26:00,
2013-06-09 04:31:00,69.2,68.3,30.07,WNW,285,0.0,0.0,97,0.00,CLR,,0.00,WeatherDisplay:10.37,2013-06-09 08:31:00,
2013-06-09 04:36:00,69.2,68.3,30.07,WNW,285,0.0,0.0,97,0.00,CLR,,0.00,WeatherDisplay:10.37,2013-06-09 08:36:00,
2013-06-09 04:41:00,69.2,68.3,30.07,WNW,285,0.0,0.0,97,0.00,CLR,,0.00,WeatherDisplay:10.37,2013-06-09 08:41:00,
2013-06-09 04:46:00,69.1,68.2,30.07,WNW,285,0.0,0.0,97,0.00,CLR,,0.00,WeatherDisplay:10.37,2013-06-09 08:46:00,
2013-06-09 04:51:00,69.1,68.2,30.07,WNW,285,0.0,0.0,97,0.00,CLR,,0.00,WeatherDisplay:10.37,2013-06-09 08:51:00,
2013-06-09 04:56:00,69.0,68.1,30.08,WNW,285,0.0,0.0,97,0.00,CLR,,0.00,WeatherDisplay:10.37,2013-06-09 08:56:00,
2013-06-09 05:01:00,68.9,68.0,30.08,WNW,285,0.0,0.0,97,0.00,CLR,,0.00,WeatherDisplay:10.37,2013-06-09 09:01:00,
2013-06-09 05:06:00,68.9,68.0,30.08,WNW,285,0.0,0.0,97,0.00,CLR,,0.00,WeatherDisplay:10.37,2013-06-09 09:06:00,
2013-06-09 05:11:00,68.9,68.0,30.08,WNW,285,0.0,0.0,97,0.00,CLR,,0.00,WeatherDisplay:10.37,2013-06-09 09:11:00,
2013-06-09 05:16:00,68.8,67.9,30.08,WNW,285,0.0,0.0,97,0.00,CLR,,0.00,WeatherDisplay:10.37,2013-06-09 09:16:00,
2013-06-09 05:21:00,68.8,68.2,30.08,WNW,285,0.0,0.0,98,0.00,CLR,,0.00,WeatherDisplay:10.37,2013-06-09 09:21:00,
2013-06-09 05:26:00,68.8,67.9,30.09,WNW,285,0.0,0.0,97,0.00,CLR,,0.00,WeatherDisplay:10.37,2013-06-09 09:26:00,
2013-06-09 05:31:00,68.7,67.8,30.09,WNW,285,0.0,0.0,97,0.00,CLR,,0.00,WeatherDisplay:10.37,2013-06-09 09:31:00,
2013-06-09 05:36:00,68.7,68.1,30.09,WNW,285,0.0,0.0,98,0.00,CLR,,0.00,WeatherDisplay:10.37,2013-06-09 09:36:00,
2013-06-09 05:42:00,68.8,68.2,30.09,WNW,285,0.0,0.0,98,0.00,CLR,,0.00,WeatherDisplay:10.37,2013-06-09 09:42:00,
2013-06-09 05:47:00,68.7,68.1,30.09,WNW,285,0.0,0.0,98,0.00,CLR,,0.00,WeatherDisplay:10.37,2013-06-09 09:47:00,
2013-06-09 05:52:00,68.8,68.2,30.09,WNW,285,0.0,0.0,98,0.00,CLR,,0.00,WeatherDisplay:10.37,2013-06-09 09:52:00,
2013-06-09 05:57:00,68.7,68.1,30.09,WNW,285,0.0,0.0,98,0.00,CLR,,0.00,WeatherDisplay:10.37,2013-06-09 09:57:00,
2013-06-09 06:02:00,68.5,67.6,30.09,WNW,285,0.0,0.0,97,0.00,CLR,,0.00,WeatherDisplay:10.37,2013-06-09 10:02:00,
2013-06-09 06:07:00,68.5,67.9,30.09,WNW,285,0.0,0.0,98,0.00,CLR,,0.00,WeatherDisplay:10.37,2013-06-09 10:07:00,
2013-06-09 06:12:00,68.5,67.9,30.10,WNW,285,0.0,0.0,98,0.00,CLR,,0.00,WeatherDisplay:10.37,2013-06-09 10:12:00,
2013-06-09 06:17:00,68.6,68.0,30.10,WNW,285,1.1,0.0,98,0.00,CLR,,0.00,WeatherDisplay:10.37,2013-06-09 10:17:00,
2013-06-09 06:22:00,68.6,68.0,30.10,WNW,285,0.0,0.0,98,0.00,CLR,,0.00,WeatherDisplay:10.37,2013-06-09 10:22:00,
2013-06-09 06:27:00,68.5,67.9,30.10,WNW,285,0.0,0.0,98,0.00,CLR,,0.00,WeatherDisplay:10.37,2013-06-09 10:27:00,
2013-06-09 06:32:00,68.4,67.8,30.10,WNW,285,0.0,0.0,98,0.00,CLR,,0.00,WeatherDisplay:10.37,2013-06-09 10:32:00,
2013-06-09 06:37:00,68.5,67.9,30.10,WNW,285,0.0,0.0,98,0.00,CLR,,0.00,WeatherDisplay:10.37,2013-06-09 10:37:00,
2013-06-09 06:42:00,68.6,68.0,30.10,WNW,285,0.0,0.0,98,0.00,CLR,,0.00,WeatherDisplay:10.37,2013-06-09 10:42:00,
2013-06-09 06:47:00,68.7,68.1,30.10,WNW,285,0.0,0.0,98,0.00,CLR,,0.00,WeatherDisplay:10.37,2013-06-09 10:47:00,
2013-06-09 06:52:00,68.8,68.2,30.10,WNW,285,0.0,0.0,98,0.00,CLR,,0.00,WeatherDisplay:10.37,2013-06-09 10:52:00,
2013-06-09 06:57:00,68.9,68.3,30.10,WNW,285,0.0,0.0,98,0.00,CLR,,0.00,WeatherDisplay:10.37,2013-06-09 10:57:00,
2013-06-09 07:02:00,69.1,68.5,30.10,WNW,285,0.0,0.0,98,0.00,CLR,,0.00,WeatherDisplay:10.37,2013-06-09 11:02:00,
2013-06-09 07:07:00,69.3,68.7,30.10,WNW,285,0.0,0.0,98,0.00,CLR,,0.00,WeatherDisplay:10.37,2013-06-09 11:07:00,
2013-06-09 07:12:00,69.5,68.9,30.10,WNW,285,0.0,0.0,98,0.00,CLR,,0.00,WeatherDisplay:10.37,2013-06-09 11:12:00,
2013-06-09 07:17:00,69.7,69.1,30.11,WNW,285,0.0,0.0,98,0.00,CLR,,0.00,WeatherDisplay:10.37,2013-06-09 11:17:00,
2013-06-09 07:22:00,69.9,69.3,30.11,WNW,285,0.0,0.0,98,0.00,CLR,,0.00,WeatherDisplay:10.37,2013-06-09 11:22:00,
2013-06-09 07:27:00,70.1,69.5,30.11,WNW,285,0.0,0.0,98,0.00,CLR,,0.00,WeatherDisplay:10.37,2013-06-09 11:27:00,
2013-06-09 07:32:00,70.2,69.6,30.11,WNW,285,0.0,0.0,98,0.00,CLR,,0.00,WeatherDisplay:10.37,2013-06-09 11:32:00,
2013-06-09 07:37:00,70.4,69.8,30.11,WNW,285,0.0,0.0,98,0.00,CLR,,0.00,WeatherDisplay:10.37,2013-06-09 11:37:00,
2013-06-09 07:42:00,70.6,70.0,30.11,WNW,285,0.0,0.0,98,0.00,CLR,,0.00,WeatherDisplay:10.37,2013-06-09 11:42:00,
2013-06-09 07:47:00,70.7,70.1,30.11,WNW,287,0.0,0.0,98,0.00,CLR,,0.00,WeatherDisplay:10.37,2013-06-09 11:47:00,
2013-06-09 07:52:00,70.9,70.3,30.11,WNW,286,0.0,0.0,98,0.00,CLR,,0.00,WeatherDisplay:10.37,2013-06-09 11:52:00,
2013-06-09 07:57:00,71.1,70.5,30.12,WSW,252,1.1,1.1,98,0.00,CLR,,0.00,WeatherDisplay:10.37,2013-06-09 11:57:00,
2013-06-09 08:02:00,71.3,70.4,30.12,SSE,159,0.0,0.0,97,0.00,CLR,,0.00,WeatherDisplay:10.37,2013-06-09 12:02:00,
2013-06-09 08:07:00,71.5,70.6,30.12,East,101,1.1,0.0,97,0.00,CLR,,0.00,WeatherDisplay:10.37,2013-06-09 12:07:00,
2013-06-09 08:12:00,71.8,70.6,30.12,East,94,0.0,0.0,96,0.00,CLR,,0.00,WeatherDisplay:10.37,2013-06-09 12:12:00,
2013-06-09 08:17:00,72.4,71.2,30.12,ESE,109,0.0,0.0,96,0.00,CLR,,0.00,WeatherDisplay:10.37,2013-06-09 12:17:00,
2013-06-09 08:22:00,73.0,71.5,30.12,SSE,160,0.0,0.0,95,0.00,CLR,,0.00,WeatherDisplay:10.37,2013-06-09 12:22:00,
2013-06-09 08:27:00,73.5,71.7,30.12,West,272,1.1,0.0,94,0.00,CLR,,0.00,WeatherDisplay:10.37,2013-06-09 12:27:00,
2013-06-09 08:32:00,73.8,71.3,30.12,WSW,249,1.1,1.1,92,0.00,CLR,,0.00,WeatherDisplay:10.37,2013-06-09 12:32:00,
2013-06-09 08:37:00,74.2,71.7,30.12,WSW,245,0.0,0.0,92,0.00,CLR,,0.00,WeatherDisplay:10.37,2013-06-09 12:37:00,
2013-06-09 08:42:00,74.5,71.4,30.12,SE,126,0.0,0.0,90,0.00,CLR,,0.00,WeatherDisplay:10.37,2013-06-09 12:42:00,
2013-06-09 08:47:00,74.9,71.8,30.13,SW,232,0.0,0.0,90,0.00,CLR,,0.00,WeatherDisplay:10.37,2013-06-09 12:47:00,
2013-06-09 08:52:00,75.2,71.7,30.13,WSW,257,0.0,0.0,89,0.00,CLR,,0.00,WeatherDisplay:10.37,2013-06-09 12:52:00,
2013-06-09 08:57:00,75.5,72.0,30.13,SE,128,0.0,0.0,89,0.00,CLR,,0.00,WeatherDisplay:10.37,2013-06-09 12:57:00,
2013-06-09 09:02:00,75.9,72.1,30.13,SE,127,0.0,0.0,88,0.00,CLR,,0.00,WeatherDisplay:10.37,2013-06-09 13:02:00,
2013-06-09 09:07:00,76.3,72.1,30.13,SE,127,0.0,0.0,87,0.00,CLR,,0.00,WeatherDisplay:10.37,2013-06-09 13:07:00,
2013-06-09 09:12:00,76.4,71.9,30.13,West,271,0.0,0.0,86,0.00,CLR,,0.00,WeatherDisplay:10.37,2013-06-09 13:12:00,
2013-06-09 09:17:00,76.6,72.4,30.13,West,273,0.0,0.0,87,0.00,CLR,,0.00,WeatherDisplay:10.37,2013-06-09 13:17:00,
2013-06-09 09:22:00,77.0,71.8,30.13,WSW,238,2.3,2.3,84,0.00,CLR,,0.00,WeatherDisplay:10.37,2013-06-09 13:22:00,
2013-06-09 09:27:00,77.2,71.6,30.13,West,273,3.5,3.5,83,0.00,CLR,,0.00,WeatherDisplay:10.37,2013-06-09 13:27:00,
2013-06-09 09:32:00,77.6,72.4,30.13,WSW,253,2.3,2.3,84,0.00,CLR,,0.00,WeatherDisplay:10.37,2013-06-09 13:32:00,
2013-06-09 09:37:00,78.2,72.3,30.13,West,270,0.0,0.0,82,0.00,CLR,,0.00,WeatherDisplay:10.37,2013-06-09 13:37:00,
2013-06-09 09:42:00,78.8,72.8,30.13,East,98,2.3,2.3,82,0.00,CLR,,0.00,WeatherDisplay:10.37,2013-06-09 13:42:00,
2013-06-09 09:47:00,79.1,71.6,30.12,SE,128,3.5,3.5,78,0.00,CLR,,0.00,WeatherDisplay:10.37,2013-06-09 13:47:00,
2013-06-09 09:52:00,79.7,72.6,30.12,SW,221,0.0,0.0,79,0.00,CLR,,0.00,WeatherDisplay:10.37,2013-06-09 13:52:00,
2013-06-09 09:57:00,80.6,72.7,30.12,SE,135,1.1,0.0,77,0.00,CLR,,0.00,WeatherDisplay:10.37,2013-06-09 13:57:00,
2013-06-09 10:02:00,81.3,73.4,30.12,WSW,252,1.1,1.1,77,0.00,CLR,,0.00,WeatherDisplay:10.37,2013-06-09 14:02:00,
2013-06-09 10:07:00,81.7,73.4,30.12,ENE,78,2.3,2.3,76,0.00,CLR,,0.00,WeatherDisplay:10.37,2013-06-09 14:07:00,
2013-06-09 10:12:00,81.7,72.6,30.12,East,91,3.5,3.5,74,0.00,CLR,,0.00,WeatherDisplay:10.37,2013-06-09 14:12:00,
2013-06-09 10:17:00,81.7,72.6,30.12,East,95,1.1,1.1,74,0.00,CLR,,0.00,WeatherDisplay:10.37,2013-06-09 14:17:00,
2013-06-09 10:22:00,81.7,72.2,30.12,East,98,2.3,2.3,73,0.00,CLR,,0.00,WeatherDisplay:10.37,2013-06-09 14:22:00,
2013-06-09 10:27:00,81.6,72.5,30.12,ESE,118,3.5,3.5,74,0.00,CLR,,0.00,WeatherDisplay:10.37,2013-06-09 14:27:00,
2013-06-09 10:32:00,82.1,73.0,30.12,WNW,288,1.1,1.1,74,0.00,CLR,,0.00,WeatherDisplay:10.37,2013-06-09 14:32:00,
2013-06-09 10:37:00,82.7,73.2,30.12,ESE,122,3.5,3.5,73,0.00,CLR,,0.00,WeatherDisplay:10.37,2013-06-09 14:37:00,
2013-06-09 10:42:00,82.5,73.0,30.12,East,98,3.5,3.5,73,0.00,CLR,,0.00,WeatherDisplay:10.37,2013-06-09 14:42:00,
2013-06-09 10:47:00,82.7,71.9,30.12,SSE,150,2.3,2.3,70,0.00,CLR,,0.00,WeatherDisplay:10.37,2013-06-09 14:47:00,
2013-06-09 10:52:00,82.8,72.4,30.12,ESE,109,2.3,2.3,71,0.00,CLR,,0.00,WeatherDisplay:10.37,2013-06-09 14:52:00,
2013-06-09 10:57:00,83.2,72.8,30.12,South,174,3.5,3.5,71,0.00,CLR,,0.00,WeatherDisplay:10.37,2013-06-09 14:57:00,
2013-06-09 11:02:00,83.5,72.7,30.12,ENE,60,3.5,3.5,70,0.00,CLR,,0.00,WeatherDisplay:10.37,2013-06-09 15:02:00,
2013-06-09 11:07:00,84.0,72.7,30.11,East,99,2.3,2.3,69,0.00,CLR,,0.00,WeatherDisplay:10.37,2013-06-09 15:07:00,
2013-06-09 11:12:00,84.3,72.6,30.11,ESE,122,5.8,5.8,68,0.00,CLR,,0.00,WeatherDisplay:10.37,2013-06-09 15:12:00,
2013-06-09 11:17:00,83.9,72.6,30.12,East,81,2.3,2.3,69,0.00,CLR,,0.00,WeatherDisplay:10.37,2013-06-09 15:17:00,
2013-06-09 11:22:00,84.3,71.7,30.12,South,173,5.8,5.8,66,0.00,CLR,,0.00,WeatherDisplay:10.37,2013-06-09 15:22:00,
2013-06-09 11:27:00,84.7,72.1,30.11,ESE,121,1.1,1.1,66,0.00,CLR,,0.00,WeatherDisplay:10.37,2013-06-09 15:27:00,
2013-06-09 11:32:00,85.2,72.6,30.11,East,100,2.0,2.0,66,0.00,CLR,,0.00,WeatherDisplay:10.37,2013-06-09 15:32:00,
2013-06-09 11:37:00,85.4,70.9,30.11,NNE,16,3.5,3.5,62,0.00,CLR,,0.00,WeatherDisplay:10.37,2013-06-09 15:37:00,
2013-06-09 11:42:00,85.6,72.0,30.11,ESE,103,1.1,0.0,64,0.00,CLR,,0.00,WeatherDisplay:10.37,2013-06-09 15:42:00,
2013-06-09 11:47:00,86.0,72.4,30.11,West,272,1.1,1.1,64,0.00,CLR,,0.00,WeatherDisplay:10.37,2013-06-09 15:47:00,
2013-06-09 11:52:00,86.5,71.9,30.11,NW,321,1.1,1.1,62,0.00,CLR,,0.00,WeatherDisplay:10.37,2013-06-09 15:52:00,
2013-06-09 11:57:00,86.3,71.7,30.11,ESE,117,1.1,0.0,62,0.00,CLR,,0.00,WeatherDisplay:10.37,2013-06-09 15:57:00,
2013-06-09 12:02:00,86.2,72.1,30.11,ESE,103,2.3,2.4,63,0.00,CLR,,0.00,WeatherDisplay:10.37,2013-06-09 16:02:00,
2013-06-09 12:07:00,86.4,71.8,30.11,SE,124,4.6,4.6,62,0.00,CLR,,0.00,WeatherDisplay:10.37,2013-06-09 16:07:00,
2013-06-09 12:12:00,86.2,72.1,30.11,WSW,249,2.3,0.0,63,0.00,CLR,,0.00,WeatherDisplay:10.37,2013-06-09 16:12:00,
2013-06-09 12:17:00,86.1,72.5,30.11,ESE,120,0.0,0.0,64,0.00,CLR,,0.00,WeatherDisplay:10.37,2013-06-09 16:17:00,
2013-06-09 12:22:00,86.6,72.5,30.11,East,99,2.3,2.3,63,0.00,CLR,,0.00,WeatherDisplay:10.37,2013-06-09 16:22:00,
2013-06-09 12:27:00,86.9,72.8,30.11,East,89,3.0,3.0,63,0.00,CLR,,0.00,WeatherDisplay:10.37,2013-06-09 16:27:00,
2013-06-09 12:32:00,87.5,73.3,30.11,SSE,163,3.5,3.5,63,0.00,CLR,,0.00,WeatherDisplay:10.37,2013-06-09 16:32:00,
2013-06-09 12:37:00,87.7,72.1,30.10,ESE,110,5.0,5.0,60,0.00,CLR,,0.00,WeatherDisplay:10.37,2013-06-09 16:37:00,
2013-06-09 12:42:00,87.0,71.4,30.10,East,90,3.5,3.5,60,0.00,CLR,,0.00,WeatherDisplay:10.37,2013-06-09 16:42:00,
2013-06-09 12:47:00,87.3,73.2,30.10,SW,217,4.6,4.6,63,0.00,CLR,,0.00,WeatherDisplay:10.37,2013-06-09 16:47:00,
2013-06-09 12:52:00,88.0,71.9,30.10,ESE,110,3.5,3.5,59,0.00,CLR,,0.00,WeatherDisplay:10.37,2013-06-09 16:52:00,
2013-06-09 12:57:00,87.7,72.6,30.10,ENE,72,3.5,3.5,61,0.00,CLR,,0.00,WeatherDisplay:10.37,2013-06-09 16:57:00,
2013-06-09 13:02:00,87.8,71.7,30.10,ESE,102,2.3,2.3,59,0.00,CLR,,0.00,WeatherDisplay:10.37,2013-06-09 17:02:00,
2013-06-09 13:07:00,87.9,71.8,30.10,East,100,5.0,5.0,59,0.00,CLR,,0.00,WeatherDisplay:10.37,2013-06-09 17:07:00,
2013-06-09 13:12:00,87.7,71.6,30.09,West,267,3.5,3.5,59,0.00,CLR,,0.00,WeatherDisplay:10.37,2013-06-09 17:12:00,
2013-06-09 13:17:00,87.5,71.4,30.09,NE,37,3.5,3.5,59,0.00,CLR,,0.00,WeatherDisplay:10.37,2013-06-09 17:17:00,
2013-06-09 13:22:00,87.2,73.1,30.09,SSW,194,1.1,1.1,63,0.00,CLR,,0.00,WeatherDisplay:10.37,2013-06-09 17:22:00,
2013-06-09 13:27:00,87.7,72.1,30.08,ESE,104,4.0,4.0,60,0.00,CLR,,0.00,WeatherDisplay:10.37,2013-06-09 17:27:00,
2013-06-09 13:32:00,88.3,72.7,30.08,East,82,2.3,2.3,60,0.00,CLR,,0.00,WeatherDisplay:10.37,2013-06-09 17:32:00,
2013-06-09 13:37:00,89.1,74.4,30.08,ENE,74,3.5,3.5,62,0.00,CLR,,0.00,WeatherDisplay:10.37,2013-06-09 17:37:00,
2013-06-09 13:42:00,88.6,71.4,30.08,ESE,109,4.6,4.6,57,0.00,CLR,,0.00,WeatherDisplay:10.37,2013-06-09 17:42:00,
2013-06-09 13:47:00,88.4,71.7,30.08,NNW,331,3.5,3.5,58,0.00,CLR,,0.00,WeatherDisplay:10.37,2013-06-09 17:47:00,
2013-06-09 13:52:00,89.3,71.0,30.07,West,262,3.5,3.5,55,0.00,CLR,,0.00,WeatherDisplay:10.37,2013-06-09 17:52:00,
2013-06-09 13:57:00,88.7,71.0,30.07,SW,224,3.5,3.5,56,0.00,CLR,,0.00,WeatherDisplay:10.37,2013-06-09 17:57:00,
2013-06-09 14:02:00,88.5,70.3,30.07,WSW,257,2.3,2.3,55,0.00,CLR,,0.00,WeatherDisplay:10.37,2013-06-09 18:02:00,
2013-06-09 14:07:00,89.2,70.9,30.07,ESE,113,2.3,2.3,55,0.00,CLR,,0.00,WeatherDisplay:10.37,2013-06-09 18:07:00,
2013-06-09 14:12:00,88.4,71.2,30.07,East,84,3.5,3.5,57,0.00,CLR,,0.00,WeatherDisplay:10.37,2013-06-09 18:12:00,
2013-06-09 14:17:00,87.2,72.6,30.07,NW,323,1.1,1.1,62,0.00,CLR,,0.00,WeatherDisplay:10.37,2013-06-09 18:17:00,
2013-06-09 14:22:00,87.5,72.4,30.07,East,84,3.5,3.5,61,0.00,CLR,,0.00,WeatherDisplay:10.37,2013-06-09 18:22:00,
2013-06-09 14:27:00,87.4,72.8,30.07,NNW,343,3.5,0.0,62,0.00,CLR,,0.00,WeatherDisplay:10.37,2013-06-09 18:27:00,
2013-06-09 14:32:00,87.7,73.5,30.07,NE,44,0.0,0.0,63,0.00,CLR,,0.00,WeatherDisplay:10.37,2013-06-09 18:32:00,
2013-06-09 14:37:00,87.7,71.6,30.06,West,274,2.3,2.3,59,0.00,CLR,,0.00,WeatherDisplay:10.37,2013-06-09 18:37:00,
2013-06-09 14:42:00,87.2,72.1,30.06,WSW,243,3.5,3.5,61,0.00,CLR,,0.00,WeatherDisplay:10.37,2013-06-09 18:42:00,
2013-06-09 14:47:00,87.0,72.4,30.06,SE,126,1.1,1.1,62,0.00,CLR,,0.00,WeatherDisplay:10.37,2013-06-09 18:47:00,
2013-06-09 14:52:00,87.3,72.2,30.06,West,280,3.5,3.5,61,0.00,CLR,,0.00,WeatherDisplay:10.37,2013-06-09 18:52:00,
2013-06-09 14:57:00,87.0,71.9,30.06,WNW,298,0.0,0.0,61,0.00,CLR,,0.00,WeatherDisplay:10.37,2013-06-09 18:57:00,
2013-06-09 15:02:00,86.4,72.8,30.06,ENE,72,1.1,1.1,64,0.00,CLR,,0.00,WeatherDisplay:10.37,2013-06-09 19:02:00,
2013-06-09 15:07:00,86.0,72.9,30.06,North,359,1.1,0.0,65,0.00,CLR,,0.00,WeatherDisplay:10.37,2013-06-09 19:07:00,
2013-06-09 15:12:00,85.7,72.1,30.06,ESE,105,0.0,0.0,64,0.00,CLR,,0.00,WeatherDisplay:10.37,2013-06-09 19:12:00,
2013-06-09 15:17:00,85.9,72.3,30.06,East,94,5.8,5.8,64,0.00,CLR,,0.00,WeatherDisplay:10.37,2013-06-09 19:17:00,
2013-06-09 15:22:00,86.5,72.4,30.05,SSW,195,5.8,5.8,63,0.00,CLR,,0.00,WeatherDisplay:10.37,2013-06-09 19:22:00,
2013-06-09 15:27:00,87.0,71.9,30.05,NE,43,3.5,3.5,61,0.00,CLR,,0.00,WeatherDisplay:10.37,2013-06-09 19:27:00,
2013-06-09 15:32:00,87.4,71.8,30.05,SE,125,4.6,4.6,60,0.00,CLR,,0.00,WeatherDisplay:10.37,2013-06-09 19:32:00,
2013-06-09 15:37:00,87.7,72.1,30.04,ENE,68,2.3,2.3,60,0.00,CLR,,0.00,WeatherDisplay:10.37,2013-06-09 19:37:00,
2013-06-09 15:42:00,87.6,72.0,30.04,ENE,58,3.5,3.5,60,0.00,CLR,,0.00,WeatherDisplay:10.37,2013-06-09 19:42:00,
2013-06-09 15:47:00,87.6,72.5,30.04,NE,44,6.9,6.9,61,0.00,CLR,,0.00,WeatherDisplay:10.37,2013-06-09 19:47:00,
2013-06-09 15:52:00,87.2,72.1,30.04,East,82,3.5,3.5,61,0.00,CLR,,0.00,WeatherDisplay:10.37,2013-06-09 19:52:00,
2013-06-09 15:57:00,87.2,72.6,30.04,ENE,70,4.0,4.0,62,0.00,CLR,,0.00,WeatherDisplay:10.37,2013-06-09 19:57:00,
2013-06-09 16:02:00,87.5,71.9,30.03,ESE,110,4.0,4.8,60,0.00,CLR,,0.00,WeatherDisplay:10.37,2013-06-09 20:02:00,
2013-06-09 16:07:00,87.7,71.6,30.03,NW,309,2.3,2.3,59,0.00,CLR,,0.00,WeatherDisplay:10.37,2013-06-09 20:07:00,
2013-06-09 16:12:00,88.3,73.6,30.03,ESE,115,3.0,3.0,62,0.00,CLR,,0.00,WeatherDisplay:10.37,2013-06-09 20:12:00,
2013-06-09 16:17:00,88.5,73.3,30.03,WNW,291,2.3,2.3,61,0.00,CLR,,0.00,WeatherDisplay:10.37,2013-06-09 20:17:00,
2013-06-09 16:22:00,88.2,71.0,30.03,SW,219,4.6,4.6,57,0.00,CLR,,0.00,WeatherDisplay:10.37,2013-06-09 20:22:00,
2013-06-09 16:27:00,88.1,71.5,30.03,NW,326,2.3,2.3,58,0.00,CLR,,0.00,WeatherDisplay:10.37,2013-06-09 20:27:00,
2013-06-09 16:32:00,87.9,71.3,30.03,SSE,152,3.5,3.5,58,0.00,CLR,,0.00,WeatherDisplay:10.37,2013-06-09 20:32:00,
2013-06-09 16:38:00,87.8,71.2,30.02,ESE,107,3.5,0.0,58,0.00,CLR,,0.00,WeatherDisplay:10.37,2013-06-09 20:38:00,
2013-06-09 16:43:00,88.0,70.9,30.03,WSW,249,2.0,2.0,57,0.00,CLR,,0.00,WeatherDisplay:10.37,2013-06-09 20:43:00,
2013-06-09 16:48:00,88.0,71.9,30.03,SSE,148,3.5,3.5,59,0.00,CLR,,0.00,WeatherDisplay:10.37,2013-06-09 20:48:00,
2013-06-09 16:53:00,88.0,69.8,30.03,NE,49,4.6,4.6,55,0.00,CLR,,0.00,WeatherDisplay:10.37,2013-06-09 20:53:00,
2013-06-09 16:58:00,87.8,70.1,30.03,East,84,3.5,3.5,56,0.00,CLR,,0.00,WeatherDisplay:10.37,2013-06-09 20:58:00,
2013-06-09 17:03:00,87.8,70.7,30.03,East,91,4.6,4.6,57,0.00,CLR,,0.00,WeatherDisplay:10.37,2013-06-09 21:03:00,
2013-06-09 17:08:00,88.1,71.5,30.03,NE,56,3.5,3.5,58,0.00,CLR,,0.00,WeatherDisplay:10.37,2013-06-09 21:08:00,
2013-06-09 17:13:00,88.1,71.5,30.03,ENE,70,4.0,4.0,58,0.00,CLR,,0.00,WeatherDisplay:10.37,2013-06-09 21:13:00,
2013-06-09 17:18:00,87.6,71.0,30.03,SE,134,3.5,3.5,58,0.00,CLR,,0.00,WeatherDisplay:10.37,2013-06-09 21:18:00,
2013-06-09 17:23:00,87.4,70.3,30.03,NE,56,3.5,3.5,57,0.00,CLR,,0.00,WeatherDisplay:10.37,2013-06-09 21:23:00,
2013-06-09 17:28:00,87.1,71.0,30.03,ESE,120,3.5,3.5,59,0.00,CLR,,0.00,WeatherDisplay:10.37,2013-06-09 21:28:00,
2013-06-09 17:33:00,86.7,71.2,30.03,SE,146,3.5,3.5,60,0.00,CLR,,0.00,WeatherDisplay:10.37,2013-06-09 21:33:00,
2013-06-09 17:38:00,86.5,71.5,30.03,SW,222,2.3,2.3,61,0.00,CLR,,0.00,WeatherDisplay:10.37,2013-06-09 21:38:00,
2013-06-09 17:43:00,86.5,72.4,30.03,SW,214,2.3,2.3,63,0.00,CLR,,0.00,WeatherDisplay:10.37,2013-06-09 21:43:00,
2013-06-09 17:48:00,86.5,71.9,30.03,WSW,250,3.5,3.5,62,0.00,CLR,,0.00,WeatherDisplay:10.37,2013-06-09 21:48:00,
2013-06-09 17:53:00,86.3,71.7,30.03,East,79,1.1,1.1,62,0.00,CLR,,0.00,WeatherDisplay:10.37,2013-06-09 21:53:00,
2013-06-09 17:58:00,85.9,71.4,30.03,SE,146,3.5,3.5,62,0.00,CLR,,0.00,WeatherDisplay:10.37,2013-06-09 21:58:00,
2013-06-09 18:03:00,85.7,72.1,30.03,WSW,245,2.3,2.3,64,0.00,CLR,,0.00,WeatherDisplay:10.37,2013-06-09 22:03:00,
2013-06-09 18:08:00,85.5,72.4,30.04,SE,126,1.1,0.0,65,0.00,CLR,,0.00,WeatherDisplay:10.37,2013-06-09 22:08:00,
2013-06-09 18:13:00,85.1,72.0,30.04,ESE,104,4.6,4.6,65,0.00,CLR,,0.00,WeatherDisplay:10.37,2013-06-09 22:13:00,
2013-06-09 18:18:00,84.6,71.1,30.04,SE,145,3.5,3.5,64,0.00,CLR,,0.00,WeatherDisplay:10.37,2013-06-09 22:18:00,
2013-06-09 18:23:00,84.4,71.3,30.04,SSE,150,3.5,3.5,65,0.00,CLR,,0.00,WeatherDisplay:10.37,2013-06-09 22:23:00,
2013-06-09 18:28:00,84.3,71.7,30.04,East,84,3.5,3.5,66,0.00,CLR,,0.00,WeatherDisplay:10.37,2013-06-09 22:28:00,
2013-06-09 18:33:00,84.3,72.1,30.05,SSE,152,0.0,0.0,67,0.00,CLR,,0.00,WeatherDisplay:10.37,2013-06-09 22:33:00,
2013-06-09 18:38:00,84.1,72.0,30.05,East,79,0.0,0.0,67,0.00,CLR,,0.00,WeatherDisplay:10.37,2013-06-09 22:38:00,
2013-06-09 18:43:00,84.0,71.9,30.05,ESE,103,1.1,0.0,67,0.00,CLR,,0.00,WeatherDisplay:10.37,2013-06-09 22:43:00,
2013-06-09 18:48:00,83.9,72.2,30.05,ESE,104,2.3,2.3,68,0.00,CLR,,0.00,WeatherDisplay:10.37,2013-06-09 22:48:00,
2013-06-09 18:53:00,83.7,72.0,30.05,East,79,2.3,2.3,68,0.00,CLR,,0.00,WeatherDisplay:10.37,2013-06-09 22:53:00,
2013-06-09 18:58:00,83.5,72.3,30.05,ESE,104,1.1,1.1,69,0.00,CLR,,0.00,WeatherDisplay:10.37,2013-06-09 22:58:00,
2013-06-09 19:03:00,83.4,72.2,30.05,SSE,148,2.3,2.3,69,0.00,CLR,,0.00,WeatherDisplay:10.37,2013-06-09 23:03:00,
2013-06-09 19:08:00,83.2,72.4,30.05,NE,40,0.0,0.0,70,0.00,CLR,,0.00,WeatherDisplay:10.37,2013-06-09 23:08:00,
2013-06-09 19:13:00,82.9,72.5,30.04,SE,132,0.0,0.0,71,0.00,CLR,,0.00,WeatherDisplay:10.37,2013-06-09 23:13:00,
2013-06-09 19:18:00,82.7,72.7,30.04,ESE,108,1.1,0.0,72,0.00,CLR,,0.00,WeatherDisplay:10.37,2013-06-09 23:18:00,
2013-06-09 19:23:00,82.5,73.0,30.04,SSW,203,2.3,2.3,73,0.00,CLR,,0.00,WeatherDisplay:10.37,2013-06-09 23:23:00,
2013-06-09 19:28:00,82.3,72.8,30.03,South,177,0.0,0.0,73,0.00,CLR,,0.00,WeatherDisplay:10.37,2013-06-09 23:28:00,
2013-06-09 19:33:00,82.1,72.6,30.03,WNW,291,1.1,0.0,73,0.00,CLR,,0.00,WeatherDisplay:10.37,2013-06-09 23:33:00,
2013-06-09 19:38:00,82.0,72.9,30.04,East,94,1.1,1.1,74,0.00,CLR,,0.00,WeatherDisplay:10.37,2013-06-09 23:38:00,
2013-06-09 19:43:00,81.9,73.2,30.04,ESE,113,0.0,0.0,75,0.00,CLR,,0.00,WeatherDisplay:10.37,2013-06-09 23:43:00,
2013-06-09 19:48:00,81.7,73.0,30.04,SE,146,1.1,1.1,75,0.00,CLR,,0.00,WeatherDisplay:10.37,2013-06-09 23:48:00,
2013-06-09 19:53:00,81.7,73.0,30.04,SSE,157,3.5,3.5,75,0.00,CLR,,0.00,WeatherDisplay:10.37,2013-06-09 23:53:00,
2013-06-09 19:58:00,81.6,73.3,30.04,SSE,158,0.0,0.0,76,0.00,CLR,,0.00,WeatherDisplay:10.37,2013-06-09 23:58:00,
2013-06-09 20:03:00,81.5,73.2,30.04,ESE,102,1.1,1.1,76,0.00,CLR,,0.00,WeatherDisplay:10.37,2013-06-10 00:03:00,
2013-06-09 20:08:00,81.3,73.0,30.04,East,101,1.1,1.1,76,0.00,CLR,,0.00,WeatherDisplay:10.37,2013-06-10 00:08:00,
2013-06-09 20:13:00,81.2,73.3,30.04,ESE,102,0.0,0.0,77,0.00,CLR,,0.00,WeatherDisplay:10.37,2013-06-10 00:13:00,
2013-06-09 20:18:00,81.0,73.1,30.04,ESE,105,0.0,0.0,77,0.00,CLR,,0.00,WeatherDisplay:10.37,2013-06-10 00:18:00,
2013-06-09 20:23:00,80.9,73.4,30.04,East,92,1.1,1.1,78,0.00,CLR,,0.00,WeatherDisplay:10.37,2013-06-10 00:23:00,
2013-06-09 20:28:00,80.8,73.3,30.04,SE,132,3.5,3.5,78,0.00,CLR,,0.00,WeatherDisplay:10.37,2013-06-10 00:28:00,
2013-06-09 20:33:00,80.7,73.2,30.05,SW,218,6.9,6.9,78,0.00,CLR,,0.00,WeatherDisplay:10.37,2013-06-10 00:33:00,
2013-06-09 20:38:00,80.7,73.6,30.05,West,269,1.1,1.1,79,0.00,CLR,,0.00,WeatherDisplay:10.37,2013-06-10 00:38:00,
2013-06-09 20:43:00,80.2,73.5,30.06,West,266,2.3,2.3,80,0.00,CLR,,0.00,WeatherDisplay:10.37,2013-06-10 00:43:00,
2013-06-09 20:48:00,79.2,72.9,30.06,SSW,195,2.3,2.3,81,0.01,RA,,0.01,WeatherDisplay:10.37,2013-06-10 00:48:00,
2013-06-09 20:53:00,77.9,72.3,30.07,ENE,78,1.1,1.1,83,0.02,RA,,0.02,WeatherDisplay:10.37,2013-06-10 00:53:00,
2013-06-09 20:58:00,76.9,72.0,30.08,ENE,75,2.3,2.3,85,0.03,RA,,0.03,WeatherDisplay:10.37,2013-06-10 00:58:00,
2013-06-09 21:03:00,76.1,71.9,30.08,East,82,3.5,3.5,87,0.04,RA,,0.04,WeatherDisplay:10.37,2013-06-10 01:03:00,
2013-06-09 21:08:00,75.4,71.6,30.08,East,92,1.1,1.1,88,0.04,RA,,0.04,WeatherDisplay:10.37,2013-06-10 01:08:00,
2013-06-09 21:13:00,75.0,71.9,30.08,SE,128,1.1,1.1,90,0.05,RA,,0.05,WeatherDisplay:10.37,2013-06-10 01:13:00,
2013-06-09 21:18:00,74.7,71.9,30.08,SE,126,1.1,1.1,91,0.06,RA,,0.06,WeatherDisplay:10.37,2013-06-10 01:18:00,
2013-06-09 21:23:00,74.4,71.9,30.08,ESE,109,1.1,1.1,92,0.06,RA,,0.06,WeatherDisplay:10.37,2013-06-10 01:23:00,
2013-06-09 21:28:00,74.1,71.6,30.07,East,99,3.5,3.5,92,0.07,RA,,0.07,WeatherDisplay:10.37,2013-06-10 01:28:00,
2013-06-09 21:33:00,73.7,71.5,30.07,ESE,114,2.3,2.3,93,0.07,RA,,0.07,WeatherDisplay:10.37,2013-06-10 01:33:00,
2013-06-09 21:38:00,73.4,71.3,30.07,SSE,148,0.0,0.0,93,0.07,CLR,,0.07,WeatherDisplay:10.37,2013-06-10 01:38:00,
2013-06-09 21:43:00,73.2,71.1,30.07,SE,146,0.0,0.0,93,0.07,CLR,,0.07,WeatherDisplay:10.37,2013-06-10 01:43:00,
2013-06-09 21:48:00,73.1,71.3,30.08,ESE,107,1.1,1.1,94,0.06,CLR,,0.07,WeatherDisplay:10.37,2013-06-10 01:48:00,
2013-06-09 21:53:00,72.9,71.1,30.08,SSW,194,0.0,0.0,94,0.05,CLR,,0.07,WeatherDisplay:10.37,2013-06-10 01:53:00,
2013-06-09 21:58:00,72.9,71.1,30.08,SSW,192,0.0,0.0,94,0.04,CLR,,0.07,WeatherDisplay:10.37,2013-06-10 01:58:00,
2013-06-09 22:03:00,72.8,71.3,30.08,ESE,105,1.1,0.0,95,0.03,CLR,,0.07,WeatherDisplay:10.37,2013-06-10 02:03:00,
2013-06-09 22:08:00,72.7,71.2,30.08,ESE,103,1.1,1.1,95,0.03,CLR,,0.07,WeatherDisplay:10.37,2013-06-10 02:08:00,
2013-06-09 22:13:00,72.6,71.1,30.08,ESE,119,2.3,2.3,95,0.02,CLR,,0.07,WeatherDisplay:10.37,2013-06-10 02:13:00,
2013-06-09 22:18:00,72.6,71.1,30.08,ESE,106,0.0,0.0,95,0.01,CLR,,0.07,WeatherDisplay:10.37,2013-06-10 02:18:00,
2013-06-09 22:23:00,72.5,71.0,30.08,SE,142,3.5,3.5,95,0.01,CLR,,0.07,WeatherDisplay:10.37,2013-06-10 02:23:00,
2013-06-09 22:28:00,72.5,71.0,30.08,East,86,1.1,1.1,95,0.00,CLR,,0.07,WeatherDisplay:10.37,2013-06-10 02:28:00,
2013-06-09 22:33:00,72.3,71.1,30.08,SE,127,3.5,3.5,96,0.00,CLR,,0.07,WeatherDisplay:10.37,2013-06-10 02:33:00,
2013-06-09 22:38:00,72.2,71.0,30.08,ESE,120,2.3,2.3,96,0.00,CLR,,0.07,WeatherDisplay:10.37,2013-06-10 02:38:00,
2013-06-09 22:43:00,72.2,71.0,30.08,East,96,1.1,0.0,96,0.00,CLR,,0.07,WeatherDisplay:10.37,2013-06-10 02:43:00,
2013-06-09 22:48:00,72.2,71.0,30.08,East,97,0.0,0.0,96,0.00,CLR,,0.07,WeatherDisplay:10.37,2013-06-10 02:48:00,
2013-06-09 22:53:00,72.1,70.9,30.09,East,94,0.0,0.0,96,0.00,CLR,,0.07,WeatherDisplay:10.37,2013-06-10 02:53:00,
2013-06-09 22:58:00,72.1,70.9,30.09,ESE,104,0.0,0.0,96,0.00,CLR,,0.07,WeatherDisplay:10.37,2013-06-10 02:58:00,
2013-06-09 23:03:00,72.1,70.9,30.08,ESE,122,3.0,3.0,96,0.00,CLR,,0.07,WeatherDisplay:10.37,2013-06-10 03:03:00,
2013-06-09 23:08:00,72.2,71.0,30.09,East,84,1.1,1.1,96,0.00,CLR,,0.07,WeatherDisplay:10.37,2013-06-10 03:08:00,
2013-06-09 23:13:00,72.2,71.0,30.08,East,99,3.5,3.5,96,0.00,CLR,,0.07,WeatherDisplay:10.37,2013-06-10 03:13:00,
2013-06-09 23:18:00,72.1,70.9,30.08,SE,130,3.5,3.5,96,0.00,CLR,,0.07,WeatherDisplay:10.37,2013-06-10 03:18:00,
2013-06-09 23:23:00,72.1,70.9,30.08,ENE,74,3.5,3.5,96,0.00,CLR,,0.07,WeatherDisplay:10.37,2013-06-10 03:23:00,
2013-06-09 23:28:00,72.0,70.8,30.08,East,90,2.3,2.3,96,0.00,CLR,,0.07,WeatherDisplay:10.37,2013-06-10 03:28:00,
2013-06-09 23:33:00,72.0,70.8,30.08,East,91,1.1,0.0,96,0.00,CLR,,0.07,WeatherDisplay:10.37,2013-06-10 03:33:00,
2013-06-09 23:38:00,72.0,70.8,30.08,East,82,2.0,2.0,96,0.00,CLR,,0.07,WeatherDisplay:10.37,2013-06-10 03:38:00,
2013-06-09 23:43:00,71.9,70.7,30.07,SE,134,2.3,2.3,96,0.00,CLR,,0.07,WeatherDisplay:10.37,2013-06-10 03:43:00,
2013-06-09 23:48:00,71.9,70.7,30.07,SE,129,2.3,2.3,96,0.00,CLR,,0.07,WeatherDisplay:10.37,2013-06-10 03:48:00,
2013-06-09 23:53:00,71.8,70.6,30.07,East,84,1.1,1.1,96,0.00,CLR,,0.07,WeatherDisplay:10.37,2013-06-10 03:53:00,
2013-06-09 23:58:00,71.8,70.6,30.07,ESE,102,3.5,0.0,96,0.00,CLR,,0.07,WeatherDisplay:10.37,2013-06-10 03:58:00,